Regional Weather Roundup
Issued by NWS

Home | Current Version | Previous Version | Graphics & Text | Print | Product List | Glossary On
Versions: 1 2 3 4 5 6 7 8 9 10 11 12 13 14 15 16 17 18 19 20 21 22 23 24 25 26 27 28 29 30 31 32 33 34 35 36 37 38 39 40 41 42 43 44 45 46 47 48 49 50
000
ASUS43 KLSX 220507
RWRMO

WEATHER SUMMARY FOR MISSOURI
NATIONAL WEATHER SERVICE SPRINGFIELD MO
1200 AM CDT TUE AUG 22 2017

NOTE: "FAIR" INDICATES FEW OR NO CLOUDS BELOW 12,000 FEET WITH NO
       SIGNIFICANT WEATHER AND/OR OBSTRUCTIONS TO VISIBILITY.
       CURRENT SKY AND/OR WEATHER CONDITIONS ARE NOT AVAILABLE FOR
       CHILLICOTHE AND FARMINGTON.

MOZ001>031-035>038-043-044-053-054-220600-
...NORTHERN AND WESTERN MISSOURI...

CITY           SKY/WX    TMP DP  RH WIND       PRES   REMARKS
KANSAS CTY INT TSTM      70  69  97 S14       29.97F
KANSAS C DTWN  TSTM      71  71 100 CALM      29.98F FOG
LEE`S SUMMIT   TSTM      69  69 100 MISG      30.04R FOG
ST JOSEPH      CLOUDY    70  70 100 S10       29.95F
CHILLICOTHE      N/A     71  71 100 CALM      30.00R
KIRKSVILLE     TSTM      68  32  26 NE6       30.00F

$$
MOZ066>068-077>081-088>096-101>105-220600-
...SOUTHWEST MISSOURI...

CITY           SKY/WX    TMP DP  RH WIND       PRES   REMARKS
SPRINGFIELD    CLEAR     77  74  90 S9        30.06S
JOPLIN         CLOUDY    83  76  79 S15       30.03S HX  91
BRANSON          N/A     75  72  88 S3        30.10R

$$
MOZ032>034-039>042-045>050-055>058-069>072-220600-
...CENTRAL MISSOURI...

CITY           SKY/WX    TMP DP  RH WIND       PRES   REMARKS
COLUMBIA       CLOUDY    77  74  90 S12       29.98F
JEFFERSON CITY CLOUDY    80  76  87 S6        29.97F
ROLLA          CLEAR     77  72  84 S10       30.03F
SEDALIA        CLOUDY    76  70  82 NW13G21   30.02R
WARRENSBURG    TSTM      70  66  88 NW7G21    30.01F
OSAGE BEACH    PTCLDY    79  73  82 S8        30.02S

$$
MOZ051-052-059>065-220600-
...EAST CENTRAL MISSOURI...

CITY           SKY/WX    TMP DP  RH WIND       PRES   REMARKS
ST LOUIS INTL  CLOUDY    83  74  74 S10       29.99S
SPIRIT OF STL  CLOUDY    82  73  74 S12       29.96F
ST CHARLES     CLOUDY    77  74  90 S3        29.96S

$$
MOZ072>076-082>087-097>100-106>115-220600-
...SOUTH CENTRAL AND SOUTHEAST MISSOURI...

CITY           SKY/WX    TMP DP  RH WIND       PRES   REMARKS
CAPE GIRARDEAU CLEAR     75  72  90 NW3       30.03F
FARMINGTON     CLEAR     77  74  90 SW6       30.07R
POPLAR BLUFF   CLEAR     78  76  93 SW5       30.04S
WEST PLAINS    CLEAR     78  72  81 S6        30.10R

$$


USA.gov is the U.S. government's official web portal to all federal, state and local government web resources and services.